Location: New York
(40.7140°N, 74.0060°W)
Time: 08:37:13
(UTC-04:00)

ISS - Visible Passes

Search period start: 22 September 2018 00:00
Search period end: 02 October 2018 00:00
Orbit: 403 x 408 km, 51.6° (Epoch: 22 September)

Date Brightness Start Highest point End Pass type
(mag) Time Alt. Az. Time Alt. Az. Time Alt. Az.
22 Sep -3.5 20:36:16 10° WSW 20:39:32 64° NW 20:39:43 62° N visible
23 Sep -3.9 19:44:22 10° SW 19:47:38 67° SE 19:50:24 14° ENE visible
23 Sep -0.9 21:21:45 10° WNW 21:23:07 17° NW 21:23:07 17° NW visible
24 Sep -2.1 20:29:20 10° W 20:32:19 31° NNW 20:33:36 23° NNE visible
25 Sep -3.0 19:37:04 10° WSW 19:40:18 51° NNW 19:43:32 10° NE visible
25 Sep -0.8 21:15:20 10° NW 21:16:37 14° NNW 21:16:37 14° NNW visible
26 Sep -1.4 20:22:42 10° WNW 20:25:12 19° NNW 20:26:51 14° NNE visible
27 Sep -1.9 19:30:11 10° W 19:33:03 26° NNW 19:35:55 10° NE visible
27 Sep -0.7 21:08:49 10° NNW 21:09:39 12° NNW 21:09:39 12° NNW visible
28 Sep -1.2 20:16:13 10° NW 20:18:07 14° N 20:19:43 11° NNE visible
29 Sep -1.4 19:23:34 10° WNW 19:25:53 17° NNW 19:28:12 10° NNE visible
29 Sep -0.7 21:01:51 10° NNW 21:02:23 11° NNW 21:02:23 11° NNW visible
30 Sep -1.2 20:09:33 10° NNW 20:11:04 13° N 20:12:21 11° NNE visible
01 Oct -1.2 19:17:00 10° NW 19:18:45 14° N 19:20:32 10° NNE visible
01 Oct -0.8 20:54:20 10° NNW 20:54:57 12° NNW 20:54:57 12° NNW visible
